QPF
0.00 0.00 0.00 0.00 0.00 0.01 0.01 0.01 0.01 0.01 0.02 0.02 0.02 0.02 0.02 0.02 0.01 0.01 0.00 0.00 0.00 0.00 0.00 0.00 0.00 0.01 0.01 0.01 0.01 0.01 0.01 0.01 0.01 0.01 0.01 0.00 0.00 0.00 0.00 0.00 0.00 0.00 0.00
0.00 0.00 0.00 0.00 0.00 0.01 0.01 0.01 0.01 0.01 0.01 0.01 0.02 0.03 0.03 0.03 0.02 0.01 0.01 0.00 0.00 0.00 0.00 0.00 0.00 0.00 0.01 0.01 0.01 0.01 0.02 0.01 0.02 0.02 0.02 0.01 0.00 0.00 0.00 0.00 0.00 0.00 0.00
0.00 0.00 0.00 0.00 0.00 0.00 0.01 0.02 0.02 0.02 0.02 0.02 0.02 0.03 0.02 0.02 0.02 0.02 0.01 0.01 0.00 0.00 0.00 0.00 0.00 0.00 0.01 0.01 0.01 0.01 0.01 0.01 0.02 0.02 0.02 0.02 0.01 0.00 0.00 0.00 0.00 0.00 0.00
0.00 0.00 0.00 0.00 0.00 0.00 0.00 0.01 0.02 0.02 0.02 0.02 0.02 0.02 0.02 0.02 0.02 0.02 0.01 0.01 0.01 0.01 0.00 0.00 0.00 0.00 0.00 0.00 0.00 0.00 0.01 0.01 0.01 0.01 0.01 0.02 0.02 0.02 0.01 0.00 0.00 0.00 0.00
0.00 0.00 0.00 0.00 0.00 0.00 0.00 0.00 0.01 0.01 0.01 0.01 0.01 0.01 0.02 0.02 0.02 0.02 0.01 0.01 0.01 0.01 0.01 0.01 0.00 0.00 0.00 0.00 0.01 0.01 0.01 0.01 0.01 0.01 0.01 0.01 0.02 0.02 0.03 0.02 0.01 0.01 0.00
0.00 0.00 0.00 0.00 0.00 0.00 0.00 0.00 0.01 0.01 0.02 0.01 0.01 0.01 0.01 0.02 0.02 0.02 0.01 0.01 0.01 0.01 0.01 0.01 0.00 0.00 0.00 0.00 0.00 0.00 0.00 0.01 0.01 0.01 0.02 0.02 0.02 0.02 0.02 0.02 0.02 0.01 0.01
0.00 0.00 0.00 0.00 0.00 0.00 0.00 0.00 0.00 0.01 0.01 0.02 0.02 0.01 0.01 0.01 0.01 0.01 0.01 0.01 0.01 0.00 0.00 0.00 0.00 0.00 0.00 0.00 0.00 0.00 0.00 0.00 0.01 0.01 0.01 0.01 0.02 0.01 0.02 0.02 0.02 0.01 0.01
0.00 0.00 0.00 0.00 0.00 0.00 0.00 0.00 0.00 0.00 0.00 0.01 0.01 0.01 0.01 0.01 0.01 0.01 0.01 0.01 0.01 0.00 0.00 0.00 0.00 0.00 0.00 0.00 0.00 0.00 0.00 0.00 0.00 0.01 0.01 0.01 0.01 0.01 0.01 0.01 0.02 0.01 0.01
0.00 0.00 0.00 0.00 0.00 0.00 0.00 0.00 0.00 0.00 0.00 0.00 0.00 0.00 0.00 0.00 0.00 0.00 0.00 0.00 0.00 0.00 0.00 0.00 0.00 0.00 0.00 0.00 0.00 0.00 0.00 0.00 0.00 0.00 0.00 0.00 0.01 0.01 0.01 0.01 0.01 0.02 0.01
0.00 0.00 0.00 0.00 0.00 0.00 0.00 0.00 0.00 0.00 0.00 0.00 0.00 0.00 0.00 0.00 0.00 0.00 0.00 0.00 0.00 0.00 0.00 0.00 0.00 0.00 0.00 0.00 0.00 0.00 0.00 0.00 0.00 0.00 0.00 0.00 0.00 0.00 0.00 0.00 0.00 0.00 0.01
0.00 0.00 0.00 0.00 0.00 0.00 0.00 0.00 0.00 0.00 0.00 0.00 0.00 0.00 0.00 0.00 0.00 0.00 0.00 0.00 0.00 0.00 0.00 0.00 0.00 0.00 0.00 0.00 0.00 0.00 0.00 0.00 0.00 0.00 0.00 0.00 0.00 0.00 0.00 0.00 0.00 0.00 0.00
0.00 0.00 0.00 0.00 0.00 0.00 0.00 0.00 0.00 0.00 0.00 0.00 0.00 0.00 0.00 0.00 0.00 0.00 0.00 0.00 0.00 0.00 0.00 0.00 0.00 0.00 0.00 0.00 0.00 0.00 0.00 0.00 0.00 0.00 0.00 0.00 0.00 0.00 0.00 0.00 0.00 0.00 0.00
0.00 0.00 0.00 0.00 0.00 0.00 0.00 0.00 0.00 0.00 0.00 0.00 0.00 0.00 0.00 0.00 0.00 0.00 0.00 0.00 0.00 0.00 0.00 0.00 0.00 0.00 0.00 0.00 0.00 0.00 0.00 0.00 0.00 0.00 0.00 0.00 0.00 0.00 0.00 0.00 0.00 0.00 0.00
0.00 0.00 0.00 0.00 0.00 0.00 0.00 0.00 0.00 0.00 0.00 0.00 0.00 0.00 0.00 0.00 0.00 0.00 0.00 0.00 0.00 0.00 0.00 0.00 0.00 0.00 0.00 0.00 0.00 0.00 0.00 0.00 0.00 0.00 0.00 0.00 0.00 0.00 0.00 0.00 0.00 0.00 0.00
0.00 0.00 0.00 0.00 0.00 0.00 0.00 0.00 0.00 0.00 0.00 0.00 0.00 0.00 0.00 0.00 0.00 0.00 0.00 0.00 0.00 0.00 0.00 0.00 0.00 0.00 0.00 0.00 0.00 0.00 0.00 0.00 0.00 0.00 0.00 0.00 0.00 0.00 0.00 0.00 0.00 0.00 0.00
0.00 0.00 0.00 0.00 0.00 0.00 0.00 0.00 0.00 0.00 0.00 0.00 0.00 0.00 0.00 0.00 0.00 0.00 0.00 0.00 0.00 0.00 0.00 0.00 0.00 0.00 0.00 0.00 0.00 0.00 0.00 0.00 0.00 0.00 0.00 0.00 0.00 0.00 0.00 0.00 0.00 0.00 0.00
0.00 0.00 0.00 0.00 0.00 0.00 0.00 0.00 0.00 0.00 0.00 0.00 0.00 0.00 0.00 0.00 0.00 0.00 0.00 0.00 0.00 0.00 0.00 0.00 0.00 0.00 0.00 0.00 0.00 0.00 0.00 0.00 0.00 0.00 0.00 0.00 0.00 0.00 0.00 0.00 0.00 0.00 0.00
0.00 0.00 0.00 0.00 0.00 0.00 0.00 0.00 0.00 0.00 0.00 0.00 0.00 0.00 0.00 0.00 0.00 0.00 0.00 0.00 0.00 0.00 0.00 0.00 0.00 0.00 0.00 0.00 0.00 0.00 0.00 0.00 0.00 0.00 0.00 0.00 0.00 0.00 0.00 0.00 0.00 0.00 0.00
0.00 0.00 0.00 0.00 0.00 0.00 0.00 0.00 0.00 0.00 0.00 0.00 0.00 0.00 0.00 0.00 0.00 0.00 0.00 0.00 0.00 0.00 0.00 0.00 0.00 0.00 0.00 0.00 0.00 0.00 0.00 0.00 0.00 0.00 0.00 0.00 0.00 0.00 0.00 0.00 0.00 0.00 0.00
0.00 0.00 0.00 0.00 0.00 0.00 0.00 0.00 0.00 0.00 0.00 0.00 0.00 0.00 0.00 0.00 0.00 0.00 0.00 0.00 0.00 0.00 0.00 0.00 0.00 0.00 0.00 0.00 0.00 0.00 0.00 0.00 0.00 0.00 0.00 0.00 0.00 0.00 0.00 0.00 0.00 0.00 0.00
0.00 0.00 0.00 0.00 0.00 0.00 0.00 0.00 0.00 0.00 0.00 0.00 0.00 0.00 0.00 0.00 0.00 0.00 0.00 0.00 0.00 0.00 0.00 0.00 0.00 0.00 0.00 0.00 0.00 0.00 0.00 0.00 0.00 0.00 0.00 0.00 0.00 0.00 0.00 0.00 0.00 0.00 0.00
0.00 0.00 0.00 0.00 0.00 0.00 0.00 0.00 0.00 0.00 0.00 0.00 0.00 0.00 0.00 0.00 0.00 0.00 0.00 0.00 0.00 0.00 0.00 0.00 0.00 0.00 0.00 0.00 0.00 0.00 0.00 0.00 0.00 0.00 0.00 0.00 0.00 0.00 0.00 0.00 0.00 0.00 0.00
0.00 0.00 0.00 0.00 0.00 0.00 0.00 0.00 0.00 0.00 0.00 0.00 0.00 0.00 0.00 0.00 0.00 0.00 0.00 0.00 0.00 0.00 0.00 0.00 0.00 0.00 0.00 0.00 0.00 0.00 0.00 0.00 0.00 0.00 0.00 0.00 0.00 0.00 0.00 0.00 0.00 0.00 0.00
0.00 0.00 0.00 0.00 0.00 0.00 0.00 0.00 0.00 0.00 0.00 0.00 0.00 0.00 0.00 0.01 0.00 0.00 0.00 0.00 0.00 0.00 0.00 0.00 0.00 0.00 0.00 0.00 0.00 0.00 0.00 0.00 0.00 0.00 0.00 0.00 0.00 0.00 0.00 0.00 0.00 0.00 0.00
0.00 0.00 0.00 0.00 0.00 0.00 0.00 0.00 0.00 0.01 0.01 0.01 0.01 0.01 0.01 0.01 0.01 0.00 0.00 0.00 0.00 0.00 0.00 0.00 0.00 0.00 0.00 0.00 0.00 0.00 0.00 0.00 0.00 0.00 0.00 0.00 0.00 0.00 0.00 0.00 0.00 0.00 0.00
0.00 0.00 0.00 0.00 0.01 0.01 0.01 0.01 0.01 0.01 0.02 0.02 0.02 0.02 0.01 0.01 0.01 0.01 0.01 0.01 0.01 0.01 0.01 0.00 0.00 0.00 0.00 0.00 0.00 0.00 0.00 0.00 0.00 0.00 0.00 0.00 0.00 0.00 0.00 0.00 0.00 0.00 0.00
MSLP
1012.40 1012.85 1013.26 1013.59 1013.82 1013.97 1014.08 1014.21 1014.42 1014.71 1015.10 1015.56 1016.03 1016.48 1016.86 1017.15 1017.34 1017.47 1017.57 1017.66 1017.80 1017.99 1018.24 1018.52 1018.83 1019.13 1019.40 1019.63 1019.81 1019.95 1020.05 1020.12 1020.15 1020.14 1020.08 1019.97 1019.80 1019.56 1019.30 1019.03 1018.78 1018.60 1018.50
1012.20 1012.67 1013.10 1013.44 1013.68 1013.84 1013.96 1014.09 1014.29 1014.59 1014.99 1015.45 1015.94 1016.40 1016.80 1017.10 1017.31 1017.45 1017.56 1017.66 1017.80 1017.99 1018.23 1018.51 1018.80 1019.08 1019.32 1019.52 1019.67 1019.79 1019.89 1019.96 1020.01 1020.02 1019.99 1019.89 1019.72 1019.49 1019.21 1018.92 1018.65 1018.45 1018.35
1012.03 1012.51 1012.95 1013.32 1013.57 1013.75 1013.88 1014.02 1014.23 1014.53 1014.92 1015.38 1015.87 1016.33 1016.73 1017.05 1017.29 1017.45 1017.59 1017.72 1017.88 1018.08 1018.32 1018.57 1018.83 1019.06 1019.25 1019.40 1019.50 1019.59 1019.66 1019.73 1019.79 1019.83 1019.83 1019.76 1019.62 1019.41 1019.14 1018.85 1018.59 1018.39 1018.30
1011.89 1012.37 1012.82 1013.20 1013.48 1013.68 1013.84 1014.00 1014.21 1014.50 1014.88 1015.33 1015.80 1016.25 1016.66 1016.99 1017.26 1017.46 1017.64 1017.82 1018.02 1018.24 1018.48 1018.71 1018.93 1019.10 1019.22 1019.30 1019.35 1019.39 1019.43 1019.48 1019.55 1019.61 1019.64 1019.61 1019.50 1019.32 1019.08 1018.82 1018.57 1018.40 1018.33
1011.79 1012.26 1012.72 1013.12 1013.42 1013.65 1013.83 1014.00 1014.22 1014.51 1014.87 1015.28 1015.73 1016.16 1016.57 1016.92 1017.21 1017.47 1017.71 1017.94 1018.19 1018.44 1018.69 1018.91 1019.09 1019.21 1019.27 1019.27 1019.25 1019.23 1019.23 1019.26 1019.33 1019.40 1019.45 1019.46 1019.39 1019.25 1019.05 1018.82 1018.61 1018.46 1018.42
1011.74 1012.20 1012.66 1013.06 1013.39 1013.64 1013.85 1014.04 1014.26 1014.53 1014.87 1015.25 1015.66 1016.07 1016.47 1016.83 1017.16 1017.47 1017.77 1018.07 1018.37 1018.67 1018.93 1019.15 1019.30 1019.37 1019.37 1019.32 1019.23 1019.16 1019.12 1019.12 1019.17 1019.25 1019.32 1019.35 1019.32 1019.22 1019.06 1018.87 1018.69 1018.57 1018.56
1011.75 1012.19 1012.64 1013.05 1013.39 1013.67 1013.90 1014.11 1014.33 1014.59 1014.89 1015.24 1015.61 1016.00 1016.38 1016.75 1017.11 1017.47 1017.82 1018.19 1018.54 1018.88 1019.17 1019.40 1019.53 1019.57 1019.53 1019.43 1019.30 1019.19 1019.11 1019.09 1019.13 1019.20 1019.28 1019.33 1019.32 1019.25 1019.13 1018.97 1018.83 1018.74 1018.75
1011.83 1012.25 1012.68 1013.08 1013.44 1013.73 1013.98 1014.21 1014.44 1014.68 1014.96 1015.28 1015.62 1015.97 1016.34 1016.71 1017.08 1017.47 1017.87 1018.28 1018.68 1019.05 1019.37 1019.61 1019.74 1019.77 1019.72 1019.59 1019.44 1019.31 1019.21 1019.18 1019.20 1019.27 1019.35 1019.41 1019.42 1019.38 1019.28 1019.16 1019.04 1018.98 1019.00
1011.97 1012.35 1012.76 1013.16 1013.51 1013.82 1014.09 1014.33 1014.57 1014.82 1015.08 1015.38 1015.69 1016.02 1016.36 1016.72 1017.11 1017.51 1017.93 1018.36 1018.78 1019.17 1019.51 1019.75 1019.89 1019.93 1019.88 1019.77 1019.63 1019.50 1019.41 1019.38 1019.40 1019.47 1019.54 1019.61 1019.63 1019.61 1019.54 1019.44 1019.36 1019.31 1019.35
1012.14 1012.48 1012.86 1013.24 1013.59 1013.91 1014.20 1014.46 1014.72 1014.98 1015.25 1015.53 1015.83 1016.14 1016.47 1016.82 1017.19 1017.58 1018.00 1018.43 1018.85 1019.24 1019.57 1019.82 1019.98 1020.04 1020.02 1019.94 1019.84 1019.74 1019.68 1019.67 1019.70 1019.77 1019.86 1019.92 1019.96 1019.95 1019.90 1019.83 1019.77 1019.75 1019.80
1012.30 1012.60 1012.94 1013.29 1013.64 1013.96 1014.27 1014.56 1014.85 1015.13 1015.42 1015.72 1016.02 1016.33 1016.65 1016.99 1017.34 1017.71 1018.10 1018.50 1018.89 1019.26 1019.57 1019.82 1019.99 1020.08 1020.11 1020.08 1020.04 1020.00 1020.00 1020.02 1020.09 1020.18 1020.27 1020.35 1020.39 1020.40 1020.37 1020.33 1020.29 1020.29 1020.35
1012.43 1012.67 1012.96 1013.28 1013.60 1013.93 1014.25 1014.58 1014.90 1015.23 1015.56 1015.89 1016.22 1016.55 1016.88 1017.21 1017.54 1017.89 1018.24 1018.60 1018.94 1019.27 1019.56 1019.80 1019.98 1020.10 1020.18 1020.22 1020.25 1020.29 1020.35 1020.43 1020.53 1020.64 1020.75 1020.84 1020.89 1020.91 1020.91 1020.89 1020.88 1020.90 1020.97
1012.50 1012.68 1012.91 1013.17 1013.47 1013.79 1014.13 1014.48 1014.85 1015.24 1015.62 1016.01 1016.39 1016.75 1017.10 1017.44 1017.77 1018.09 1018.41 1018.72 1019.02 1019.30 1019.56 1019.79 1019.97 1020.13 1020.26 1020.37 1020.48 1020.59 1020.72 1020.86 1021.00 1021.15 1021.27 1021.36 1021.43 1021.46 1021.47 1021.47 1021.48 1021.52 1021.60
1012.51 1012.61 1012.77 1012.97 1013.23 1013.53 1013.88 1014.26 1014.68 1015.12 1015.57 1016.02 1016.46 1016.88 1017.28 1017.64 1017.98 1018.30 1018.59 1018.87 1019.14 1019.38 1019.62 1019.83 1020.03 1020.21 1020.39 1020.56 1020.73 1020.92 1021.11 1021.30 1021.48 1021.64 1021.78 1021.88 1021.95 1021.99 1022.00 1022.02 1022.04 1022.10 1022.18
1012.51 1012.51 1012.58 1012.71 1012.91 1013.19 1013.53 1013.94 1014.39 1014.89 1015.40 1015.92 1016.43 1016.91 1017.36 1017.77 1018.14 1018.48 1018.77 1019.04 1019.29 1019.52 1019.74 1019.95 1020.15 1020.36 1020.57 1020.79 1021.02 1021.26 1021.49 1021.72 1021.92 1022.10 1022.24 1022.34 1022.40 1022.44 1022.45 1022.47 1022.50 1022.56 1022.64
1012.52 1012.42 1012.39 1012.44 1012.58 1012.82 1013.14 1013.55 1014.04 1014.57 1015.14 1015.72 1016.29 1016.84 1017.35 1017.81 1018.23 1018.60 1018.92 1019.21 1019.46 1019.70 1019.92 1020.13 1020.35 1020.58 1020.81 1021.07 1021.32 1021.59 1021.85 1022.09 1022.30 1022.48 1022.61 1022.70 1022.75 1022.77 1022.78 1022.80 1022.82 1022.88 1022.96
1012.61 1012.40 1012.27 1012.23 1012.31 1012.49 1012.79 1013.19 1013.68 1014.24 1014.84 1015.46 1016.08 1016.68 1017.24 1017.76 1018.24 1018.65 1019.02 1019.34 1019.63 1019.88 1020.12 1020.35 1020.58 1020.82 1021.07 1021.34 1021.60 1021.88 1022.14 1022.37 1022.58 1022.74 1022.85 1022.93 1022.96 1022.97 1022.97 1022.97 1022.99 1023.04 1023.11
1012.79 1012.48 1012.25 1012.14 1012.15 1012.28 1012.55 1012.93 1013.41 1013.96 1014.57 1015.20 1015.85 1016.48 1017.08 1017.65 1018.17 1018.63 1019.05 1019.42 1019.75 1020.04 1020.30 1020.56 1020.80 1021.05 1021.30 1021.55 1021.81 1022.07 1022.31 1022.53 1022.72 1022.86 1022.96 1023.01 1023.04 1023.04 1023.03 1023.02 1023.04 1023.07 1023.13
1013.06 1012.67 1012.36 1012.19 1012.14 1012.24 1012.47 1012.82 1013.27 1013.81 1014.40 1015.02 1015.66 1016.29 1016.91 1017.50 1018.04 1018.55 1019.01 1019.42 1019.79 1020.12 1020.42 1020.69 1020.94 1021.18 1021.42 1021.66 1021.90 1022.13 1022.35 1022.54 1022.71 1022.83 1022.92 1022.97 1023.00 1023.00 1022.99 1022.99 1022.99 1023.02 1023.07
1013.39 1012.93 1012.57 1012.35 1012.27 1012.34 1012.54 1012.87 1013.29 1013.80 1014.35 1014.94 1015.55 1016.16 1016.76 1017.35 1017.90 1018.42 1018.91 1019.35 1019.74 1020.10 1020.41 1020.70 1020.95 1021.19 1021.41 1021.63 1021.84 1022.04 1022.23 1022.40 1022.55 1022.68 1022.77 1022.83 1022.87 1022.89 1022.90 1022.91 1022.92 1022.95 1022.99
1013.70 1013.20 1012.82 1012.58 1012.49 1012.55 1012.74 1013.04 1013.44 1013.91 1014.42 1014.97 1015.53 1016.10 1016.66 1017.21 1017.75 1018.26 1018.74 1019.19 1019.60 1019.96 1020.28 1020.57 1020.82 1021.04 1021.24 1021.43 1021.61 1021.79 1021.96 1022.13 1022.28 1022.41 1022.52 1022.62 1022.69 1022.74 1022.79 1022.82 1022.85 1022.89 1022.93
1013.94 1013.42 1013.03 1012.80 1012.71 1012.77 1012.96 1013.26 1013.64 1014.08 1014.56 1015.06 1015.56 1016.07 1016.58 1017.09 1017.59 1018.07 1018.53 1018.96 1019.36 1019.71 1020.03 1020.30 1020.53 1020.73 1020.92 1021.08 1021.25 1021.41 1021.58 1021.74 1021.91 1022.07 1022.22 1022.36 1022.48 1022.58 1022.67 1022.75 1022.81 1022.87 1022.92
1014.05 1013.53 1013.16 1012.93 1012.87 1012.94 1013.14 1013.44 1013.81 1014.23 1014.68 1015.13 1015.59 1016.05 1016.50 1016.96 1017.40 1017.84 1018.26 1018.66 1019.03 1019.36 1019.65 1019.90 1020.11 1020.30 1020.46 1020.62 1020.77 1020.93 1021.10 1021.29 1021.48 1021.68 1021.88 1022.07 1022.25 1022.41 1022.55 1022.67 1022.77 1022.85 1022.92
1014.04 1013.53 1013.16 1012.95 1012.90 1012.99 1013.20 1013.50 1013.87 1014.27 1014.69 1015.12 1015.54 1015.95 1016.36 1016.77 1017.17 1017.56 1017.94 1018.29 1018.63 1018.92 1019.19 1019.41 1019.60 1019.76 1019.92 1020.06 1020.21 1020.38 1020.57 1020.78 1021.01 1021.25 1021.50 1021.75 1021.98 1022.20 1022.39 1022.55 1022.69 1022.80 1022.89
1013.95 1013.44 1013.08 1012.87 1012.82 1012.91 1013.11 1013.40 1013.76 1014.15 1014.55 1014.95 1015.35 1015.73 1016.11 1016.48 1016.84 1017.20 1017.53 1017.86 1018.15 1018.42 1018.65 1018.85 1019.02 1019.17 1019.32 1019.46 1019.62 1019.80 1020.01 1020.24 1020.51 1020.79 1021.08 1021.37 1021.65 1021.91 1022.14 1022.35 1022.52 1022.65 1022.76
1013.88 1013.36 1012.98 1012.75 1012.67 1012.72 1012.89 1013.16 1013.48 1013.84 1014.22 1014.60 1014.98 1015.35 1015.71 1016.06 1016.40 1016.73 1017.05 1017.34 1017.61 1017.85 1018.06 1018.24 1018.40 1018.54 1018.68 1018.83 1019.00 1019.19 1019.42 1019.68 1019.97 1020.28 1020.60 1020.92 1021.23 1021.52 1021.77 1022.00 1022.19 1022.35 1022.48
Thickness
5659 5664 5667 5670 5673 5676 5678 5680 5680 5681 5682 5681 5681 5680 5679 5681 5681 5682 5681 5680 5679 5678 5677 5676 5674 5673 5672 5671 5670 5668 5667 5665 5664 5662 5661 5664 5665 5666 5665 5664 5660 5657 5653
5651 5654 5658 5662 5665 5667 5670 5673 5675 5676 5677 5677 5677 5677 5676 5675 5675 5674 5674 5673 5672 5671 5670 5669 5667 5666 5665 5664 5662 5661 5659 5658 5657 5653 5650 5651 5655 5659 5661 5658 5654 5650 5646
5645 5647 5650 5655 5658 5660 5663 5666 5668 5670 5671 5671 5670 5669 5667 5667 5665 5665 5665 5664 5663 5662 5661 5660 5659 5658 5657 5655 5654 5653 5651 5649 5649 5647 5642 5639 5640 5644 5649 5649 5646 5641 5637
5645 5645 5647 5649 5651 5654 5656 5658 5659 5661 5663 5664 5662 5660 5658 5657 5658 5657 5656 5655 5654 5653 5652 5651 5650 5649 5648 5647 5646 5645 5643 5641 5639 5639 5638 5636 5634 5631 5632 5635 5634 5631 5627
5641 5643 5644 5645 5646 5647 5648 5649 5651 5652 5654 5655 5655 5653 5652 5651 5650 5648 5647 5646 5645 5643 5641 5640 5640 5639 5638 5637 5636 5635 5634 5632 5631 5629 5629 5628 5626 5625 5621 5620 5620 5619 5616
5637 5639 5640 5640 5639 5638 5638 5639 5641 5642 5644 5645 5645 5644 5643 5642 5640 5638 5636 5636 5635 5633 5632 5630 5629 5628 5627 5626 5625 5625 5624 5623 5622 5621 5620 5618 5616 5615 5613 5611 5609 5607 5605
5629 5631 5632 5631 5630 5629 5628 5629 5630 5632 5634 5634 5635 5635 5634 5633 5630 5628 5627 5625 5624 5622 5621 5619 5618 5617 5617 5616 5615 5614 5614 5613 5612 5611 5610 5609 5608 5606 5604 5602 5599 5597 5594
5622 5624 5626 5625 5623 5621 5620 5620 5621 5622 5623 5623 5624 5624 5623 5621 5619 5617 5616 5614 5612 5611 5609 5608 5607 5606 5605 5604 5604 5604 5603 5603 5602 5601 5600 5598 5596 5594 5592 5590 5588 5585 5583
5616 5617 5617 5618 5615 5613 5611 5612 5612 5612 5612 5612 5612 5611 5610 5608 5606 5604 5603 5602 5600 5599 5597 5596 5596 5595 5593 5593 5593 5593 5592 5591 5590 5589 5588 5587 5584 5582 5580 5578 5576 5574 5572
5606 5608 5608 5608 5607 5605 5603 5603 5603 5603 5603 5602 5600 5599 5597 5596 5594 5592 5590 5589 5587 5586 5585 5584 5583 5583 5581 5581 5581 5580 5579 5579 5577 5576 5575 5573 5571 5569 5567 5565 5563 5561 5559
5596 5597 5598 5598 5598 5596 5594 5593 5592 5592 5591 5590 5588 5586 5585 5583 5581 5579 5578 5576 5575 5574 5572 5571 5571 5570 5569 5569 5568 5567 5567 5566 5565 5563 5561 5559 5557 5555 5553 5551 5550 5547 5545
5589 5589 5589 5588 5586 5585 5584 5584 5583 5581 5580 5578 5576 5575 5572 5570 5568 5567 5565 5563 5562 5561 5559 5558 5558 5557 5556 5556 5555 5554 5553 5552 5551 5549 5548 5546 5544 5541 5539 5537 5536 5534 5532
5581 5581 5581 5579 5577 5576 5575 5574 5573 5571 5569 5567 5565 5562 5560 5558 5556 5554 5552 5551 5549 5548 5546 5545 5544 5544 5543 5542 5542 5541 5540 5538 5536 5535 5533 5532 5530 5527 5525 5524 5522 5521 5521
5574 5574 5572 5571 5570 5569 5567 5565 5563 5561 5559 5556 5554 5552 5549 5547 5544 5542 5540 5538 5537 5535 5534 5533 5531 5531 5530 5529 5528 5527 5526 5524 5522 5520 5518 5517 5515 5513 5512 5511 5509 5509 5508
5566 5567 5566 5565 5564 5562 5560 5558 5555 5552 5549 5547 5544 5542 5539 5536 5533 5530 5528 5526 5524 5523 5522 5520 5519 5518 5517 5516 5515 5514 5513 5510 5508 5506 5504 5502 5502 5501 5501 5499 5497 5497 5496
5559 5561 5562 5561 5559 5557 5554 5551 5547 5544 5541 5538 5535 5532 5528 5525 5522 5519 5517 5515 5512 5511 5509 5508 5507 5505 5504 5502 5502 5501 5500 5498 5495 5493 5491 5490 5490 5489 5489 5488 5487 5486 5485
5551 5553 5555 5555 5555 5553 5550 5545 5541 5536 5532 5529 5526 5523 5519 5515 5512 5510 5506 5504 5501 5499 5498 5497 5495 5493 5491 5490 5490 5488 5486 5484 5482 5481 5480 5480 5479 5478 5478 5477 5476 5475 5474
5541 5544 5547 5549 5550 5549 5545 5540 5534 5529 5524 5521 5518 5514 5510 5506 5503 5500 5496 5493 5491 5488 5486 5485 5483 5481 5479 5479 5478 5476 5473 5472 5471 5470 5470 5469 5469 5469 5468 5467 5466 5465 5464
5531 5534 5538 5541 5543 5542 5538 5533 5526 5521 5517 5513 5510 5507 5503 5498 5494 5490 5486 5483 5480 5478 5475 5474 5472 5470 5469 5468 5467 5465 5463 5462 5461 5461 5461 5461 5460 5461 5460 5458 5457 5455 5454
5521 5524 5528 5531 5532 5531 5529 5523 5517 5513 5509 5507 5503 5499 5495 5490 5486 5482 5478 5474 5471 5468 5465 5463 5462 5460 5459 5459 5458 5457 5455 5453 5453 5453 5453 5454 5453 5452 5452 5449 5447 5446 5444
5511 5514 5516 5517 5518 5518 5517 5512 5508 5504 5502 5498 5494 5490 5486 5482 5478 5473 5469 5466 5462 5459 5456 5454 5453 5452 5451 5451 5451 5450 5448 5447 5446 5446 5446 5445 5445 5444 5443 5442 5439 5438 5436
5500 5502 5502 5503 5505 5506 5504 5502 5498 5496 5493 5489 5485 5481 5477 5474 5470 5465 5462 5458 5455 5452 5450 5448 5446 5446 5446 5446 5445 5444 5443 5442 5440 5440 5439 5438 5438 5436 5435 5433 5431 5430 5428
5487 5490 5491 5492 5493 5493 5493 5491 5489 5487 5484 5479 5475 5472 5469 5466 5463 5459 5456 5452 5450 5447 5445 5443 5442 5441 5441 5441 5441 5440 5439 5437 5435 5434 5433 5432 5430 5429 5427 5425 5424 5421 5418
5476 5479 5480 5481 5482 5483 5483 5483 5481 5479 5475 5471 5468 5464 5461 5459 5456 5454 5451 5449 5446 5444 5442 5440 5439 5438 5437 5436 5435 5434 5433 5432 5430 5428 5427 5426 5424 5421 5419 5417 5415 5412 5409
5465 5468 5469 5471 5473 5474 5474 5474 5473 5471 5468 5465 5461 5458 5456 5454 5451 5449 5447 5446 5445 5443 5441 5439 5437 5435 5433 5434 5434 5430 5428 5426 5424 5422 5419 5417 5414 5412 5410 5408 5406 5403 5400
5454 5457 5460 5462 5464 5465 5466 5465 5465 5463 5461 5458 5456 5453 5450 5449 5446 5444 5442 5442 5441 5440 5439 5437 5435 5434 5433 5432 5431 5428 5426 5423 5420 5416 5413 5410 5408 5406 5404 5402 5399 5396 5392